FW6932 Weather Reports


time (UTC)temp
F
wind
direction
speed
knots
gust
knots
rain 1hr
in
rain 24hr
in
rain mn
in
humidity
%
barometer
mb
20220525121254 65 80 0.9 1.7 0.00 0.00 0.00 76 1017.3
20220525120214 65 99 1.7 1.7 0.00 0.00 0.00 76 1017.2
20220525115030 66 109 4.3 5.2 0.00 0.00 0.00 75 1017.4
20220525114055 66 66 0.0 0.9 0.00 0.00 0.00 74 1017.4
20220525113014 65 92 2.6 2.6 0.00 0.00 0.00 75 1017.3
20220525111831 65 68 0.0 0.0 0.00 0.00 0.00 73 1017.3
20220525110854 64 68 0.0 0.0 0.00 0.00 0.00 76 1017.3
20220525105815 64 68 0.0 0.9 0.00 0.00 0.00 75 1017.4
20220525104631 64 50 1.7 1.7 0.00 0.00 0.00 75 1017.1
20220525103654 64 45 0.0 0.0 0.00 0.00 0.00 74 1017.1
20220525102614 64 90 0.9 0.9 0.00 0.00 0.00 74 1017.2
20220525101430 64 124 2.6 2.6 0.00 0.00 0.00 74 1017.3
20220525100454 64 65 0.0 0.0 0.00 0.00 0.00 74 1017.3
20220525095413 66 85 2.6 4.3 0.00 0.00 0.00 73 1017.1
20220525094215 64 92 3.5 4.3 0.00 0.00 0.00 73 1017.1
20220525093241 63 117 1.7 1.7 0.00 0.00 0.00 75 1017.1
20220525092302 63 100 0.9 1.7 0.00 0.00 0.00 76 1017.4
20220525091223 63 87 0.9 1.7 0.00 0.00 0.00 82 1017.2
20220525090247 62 106 1.7 1.7 0.00 0.00 0.00 83 1017.2
20220525085255 62 89 2.6 2.6 0.00 0.00 0.00 83 1017.1
20220525084214 61 56 0.9 1.7 0.00 0.00 0.00 84 1016.8
20220525083234 62 75 0.0 0.0 0.00 0.00 0.00 84 1017.1
20220525082302 61 75 0.0 0.0 0.00 0.00 0.00 84 1017.2
20220525081222 61 108 0.0 0.0 0.00 0.00 0.00 84 1017.2
20220525080245 61 107 0.0 0.0 0.00 0.00 0.00 85 1016.8
20220525075254 61 108 0.0 0.0 0.00 0.00 0.00 83 1016.8
20220525074219 61 109 1.7 1.7 0.00 0.00 0.00 83 1016.5
20220525073031 61 116 3.5 4.3 0.00 0.00 0.00 82 1016.4
20220525072054 61 113 2.6 4.3 0.00 0.00 0.00 83 1016.2
20220525071014 61 122 0.0 0.0 0.00 0.00 0.00 83 1016.1
20220525065835 62 120 4.3 5.2 0.00 0.00 0.00 81 1016.0
20220525064855 62 136 2.6 2.6 0.00 0.00 0.00 79 1015.9
20220525063814 62 73 0.0 0.0 0.00 0.00 0.00 79 1015.9
20220525062631 60 73 0.0 0.0 0.00 0.00 0.00 84 1015.9
20220525061655 60 108 0.0 0.0 0.00 0.00 0.00 86 1016.2
20220525060614 60 108 0.0 0.0 0.00 0.00 0.00 86 1016.0
20220525055431 60 108 0.0 0.0 0.00 0.00 0.00 85 1015.8
20220525054454 60 108 0.0 0.0 0.00 0.00 0.00 86 1015.8
20220525053414 60 108 0.0 0.0 0.00 0.00 0.00 86 1015.8
20220525052437 60 108 0.0 0.0 0.00 0.00 0.00 86 1015.8
20220525051503 59 108 0.0 0.0 0.00 0.00 0.00 86 1015.7
20220525050423 59 108 0.0 0.0 0.00 0.00 0.00 86 1015.7
20220525045447 59 108 0.0 0.0 0.00 0.00 0.00 87 1015.7
20220525044455 59 108 0.0 0.0 0.00 0.00 0.00 87 1015.8
20220525043415 58 108 0.0 0.0 0.00 0.00 0.00 87 1015.7
20220525042231 58 108 0.0 0.0 0.00 0.00 0.00 87 1015.5
20220525041254 58 108 0.0 0.0 0.00 0.00 0.00 85 1015.6
20220525040214 58 107 0.0 0.0 0.00 0.00 0.00 85 1015.3
20220525035030 58 110 0.0 0.0 0.00 0.00 0.00 87 1015.5
20220525034036 57 340 0.0 0.0 0.00 0.00 0.00 87 1015.7
20220525033107 57 268 0.0 0.0 0.00 0.00 0.00 88 1015.5
20220525032022 57 285 0.0 0.0 0.00 0.00 0.00 86 1015.7
20220525031035 57 329 0.0 0.0 0.00 0.00 0.00 87 1015.4
20220525030054 57 115 0.0 0.0 0.00 0.00 0.00 87 1015.4
20220525025014 57 288 0.0 0.0 0.00 0.00 0.00 87 1015.3
20220525023815 57 288 0.0 0.0 0.00 0.00 0.00 87 1015.1
20220525022630 57 246 0.0 0.0 0.00 0.00 0.00 86 1015.3
20220525021658 57 231 0.0 0.0 0.00 0.00 0.00 85 1015.4
20220525020615 57 351 0.0 0.0 0.00 0.00 0.00 85 1015.3
20220525015431 57 269 0.0 0.0 0.00 0.00 0.00 86 1015.5
20220525014456 57 347 0.0 0.0 0.00 0.00 0.00 86 1015.4
20220525013413 57 344 0.0 0.0 0.00 0.00 0.00 85 1015.6
20220525012230 57 339 0.0 0.0 0.00 0.00 0.00 87 1015.7
20220525011254 57 252 0.0 0.0 0.00 0.00 0.00 86 1015.3
20220525010214 57 337 0.0 0.0 0.00 0.00 0.00 86 1015.4
20220525005030 56 321 0.0 0.0 0.00 0.00 0.00 86 1015.4
20220525004054 56 287 0.0 0.0 0.00 0.00 0.00 86 1015.5
20220525003014 55 242 0.0 0.0 0.00 0.00 0.00 86 1015.5
20220525001829 55 281 0.0 0.0 0.00 0.00 0.00 87 1015.2
20220525000854 55 108 0.0 0.0 0.00 0.00 0.00 87 1015.2
20220524235813 55 108 0.0 0.0 0.00 0.00 0.00 86 1015.2
20220524234615 56 234 0.0 0.0 0.00 0.00 0.00 85 1015.3
20220524233430 55 240 0.0 0.0 0.00 0.00 0.00 86 1015.3
20220524232455 56 338 0.0 0.0 0.00 0.00 0.00 85 1015.4
20220524231437 57 293 0.0 0.0 0.00 0.00 0.00 85 1015.4
20220524230437 57 345 0.0 0.0 0.00 0.00 0.00 85 1015.4
20220524225502 58 345 0.0 0.0 0.00 0.00 0.00 84 1015.5
20220524224423 58 248 0.0 0.0 0.00 0.00 0.00 85 1015.4
20220524223335 59 356 0.0 0.0 0.00 0.00 0.00 84 1015.4
20220524222349 59 278 0.0 0.0 0.00 0.00 0.00 83 1015.6
20220524221359 59 332 0.0 0.0 0.00 0.00 0.00 82 1015.3
20220524220319 60 236 0.0 0.0 0.00 0.00 0.00 80 1015.2
20220524215255 59 155 0.0 0.0 0.00 0.00 0.00 82 1015.4
20220524214215 59 333 0.0 0.0 0.00 0.00 0.00 81 1015.2
20220524213031 59 332 0.0 0.0 0.00 0.00 0.00 82 1015.4
20220524212055 59 332 0.0 0.0 0.00 0.00 0.00 82 1015.2
20220524211016 59 329 0.0 0.0 0.00 0.00 0.00 82 1015.1
20220524205831 59 289 0.0 0.0 0.00 0.00 0.00 82 1015.4
20220524204855 59 293 0.0 0.0 0.00 0.00 0.00 83 1015.0
20220524203815 59 265 0.0 0.0 0.00 0.00 0.00 84 1015.3
20220524202631 60 331 0.0 0.0 0.00 0.00 0.00 82 1015.1
20220524201655 60 331 0.0 0.0 0.00 0.00 0.00 82 1014.9
20220524200615 60 331 0.0 0.0 0.00 0.00 0.00 81 1015.2
20220524195430 60 331 0.0 0.0 0.00 0.00 0.00 82 1015.0
20220524194455 60 331 0.0 0.0 0.00 0.00 0.00 82 1015.1
20220524193415 60 308 0.0 0.0 0.00 0.00 0.00 81 1015.2
20220524192336 60 289 0.0 0.0 0.00 0.00 0.00 82 1015.1
20220524191343 60 330 0.0 0.0 0.00 0.00 0.00 83 1015.1
20220524190407 60 245 0.0 0.0 0.00 0.00 0.00 83 1014.7
20220524185326 61 230 0.0 0.0 0.00 0.00 0.00 82 1014.5
20220524184351 61 119 0.0 0.0 0.00 0.00 0.00 83 1014.7
20220524183401 61 265 0.0 0.0 0.00 0.00 0.00 82 1014.4
20220524182322 61 294 0.0 0.0 0.00 0.00 0.00 82 1014.3
20220524181342 62 279 0.0 0.0 0.00 0.00 0.00 82 1014.3
20220524180405 62 258 0.0 0.0 0.00 0.00 0.00 81 1014.1
20220524175326 64 112 0.0 0.0 0.00 0.00 0.00 79 1014.1
20220524174351 63 112 0.0 0.0 0.00 0.00 0.00 78 1013.8
20220524173359 64 111 0.0 0.0 0.00 0.00 0.00 77 1013.9
20220524172319 66 111 0.0 0.0 0.00 0.00 0.00 74 1013.5
20220524171334 65 111 0.0 0.0 0.00 0.00 0.00 75 1013.7
20220524170237 66 111 0.0 0.0 0.00 0.00 0.00 75 1013.7
20220524165135 65 112 0.0 0.0 0.00 0.00 0.00 73 1013.7
20220524164135 65 206 0.9 1.7 0.00 0.00 0.00 72 1013.6
20220524163038 65 177 0.0 0.0 0.00 0.00 0.00 71 1013.8
20220524162140 66 116 0.0 0.0 0.00 0.00 0.00 71 1013.5
20220524161107 66 108 0.0 0.0 0.00 0.00 0.00 71 1013.8
20220524160139 65 249 2.6 2.6 0.00 0.00 0.00 71 1013.9
20220524155042 66 121 0.9 0.9 0.00 0.00 0.00 70 1013.8
20220524150045 64 153 4.3 6.1 0.00 0.00 0.00 71 1013.6
20220524145142 64 153 4.3 6.1 0.00 0.00 0.00 71 1013.6
20220524142935 64 153 4.3 6.1 0.00 0.00 0.00 71 1013.5
20220524141542 64 153 4.3 6.1 0.00 0.00 0.00 71 1013.7
20220524140640 64 153 4.3 6.1 0.00 0.00 0.00 71 1013.7
20220524135337 64 153 4.3 6.1 0.00 0.00 0.00 71 1013.5
20220524134239 64 153 4.3 6.1 0.00 0.00 0.00 71 1013.5
20220524133037 64 153 4.3 6.1 0.00 0.00 0.00 71 1013.6
20220524132135 64 153 4.3 6.1 0.00 0.00 0.00 71 1013.4
20220524131042 64 153 4.3 6.1 0.00 0.00 0.00 71 1013.2
20220524130033 64 129 1.7 1.7 0.00 0.00 0.00 72 1013.4
20220524124937 64 129 1.7 1.7 0.00 0.00 0.00 72 1013.5
20220524123941 64 181 4.3 6.1 0.00 0.00 0.00 71 1013.7
20220524122741 63 141 3.5 5.2 0.00 0.00 0.00 72 1013.5
20220524121725 64 163 3.5 4.3 0.00 0.00 0.00 72 1013.6